Location: Katowice
(50.2611°N, 19.0242°E)
Time: 06:02:41
(UTC+02:00)

Explorer 7 - Pass Details

Date: 03 September 2019
Orbit: 485 x 680 km, 50.3° (Epoch: 18 September)

Event Time Altitude Azimuth Distance (km) Brightness Sun altitude
Rises 07:26:23 0° 250° (WSW) 3,029 10.0 12.7°
Reaches altitude 10° 07:28:46 10° 249° (WSW) 2,116 9.3 13.1°
Maximum altitude 07:33:40 75° 165° (SSE) 701 7.7 13.9°
Drops below altitude 10° 07:38:29 10° 80° (E) 2,076 11.7 14.7°
Sets 07:40:48 0° 79° (E) 2,966 12.1 15.0°
